Miscellaneous Local Product
Issued by NWS Hastings, NE

Home | Current Version | Previous Version | Graphics & Text | Print | Product List | Glossary On
Versions: 1 2 3 4 5 6 7 8 9 10 11 12 13 14 15 16 17 18 19 20 21 22 23 24 25 26 27 28 29 30 31 32 33 34 35 36 37 38 39 40 41 42 43 44 45 46 47 48 49 50
603
AXUS43 KGID 250602
MISGRI

GID CWA HOURLY WEATHER ROUNDUP
NATIONAL WEATHER SERVICE HASTINGS NE
100 AM CDT SAT MAR 25 2017

NOTE: "FAIR" INDICATES FEW OR NO CLOUDS BELOW 12,000 FEET WITH NO
SIGNIFICANT WEATHER AND/OR OBSTRUCTIONS TO VISIBILITY.

...SOUTH CENTRAL NEBRASKA...

CITY           SKY/WX    TMP DP  RH WIND       PRES   REMARKS
GRAND ISLAND   CLOUDY    39  39 100 N18G25    30.00F FOG     WCI  30
HASTINGS       CLOUDY    40  38  93 N20       30.00F FOG     WCI  30
KEARNEY        CLOUDY    39  36  87 N17       30.02F WCI  30
ORD            CLOUDY    41  37  86 N14       30.04F
YORK           CLOUDY    41  39  93 N20G28    29.99S
AURORA         CLOUDY    39  38  95 N22G28    29.99F WCI  29
LEXINGTON      CLOUDY    42  38  86 N9        30.04S
HOLDREGE       CLOUDY    40  38  92 N20G26    30.00F WCI  31
HEBRON         CLOUDY    41  38  89 N9G18     29.95F

...NEBRASKA PANHANDLE...

CITY           SKY/WX    TMP DP  RH WIND       PRES   REMARKS
CHADRON        CLEAR     42  29  59 SE9       30.08S
ALLIANCE       CLEAR     28  24  85 CALM      30.09F
SCOTTSBLUFF    CLEAR     34  27  75 E5        30.10F WCI  30
SIDNEY         CLEAR     24  22  91 NW3       30.11F

...WESTERN AND NORTH CENTRAL NEBRASKA...

CITY           SKY/WX    TMP DP  RH WIND       PRES   REMARKS
VALENTINE      CLEAR     31  26  82 W7        30.12S WCI  24
AINSWORTH      CLEAR     32  29  90 NW6       30.10S WCI  26
ONEILL         CLOUDY    38  37  95 N13       30.08F WCI  30
BROKEN BOW     CLOUDY    39  36  89 N12       30.03F WCI  32
IMPERIAL       CLEAR     37  31  78 N9        30.08F WCI  30
NORTH PLATTE   CLOUDY    37  32  82 NW6       30.06F WCI  32
MCCOOK         CLOUDY    42  40  92 N6        30.05F

...EASTERN NEBRASKA...

CITY           SKY/WX    TMP DP  RH WIND       PRES   REMARKS
NORFOLK        CLOUDY    37  36  96 N17       30.04F FOG     WCI  27
SO SIOUX CITY  CLOUDY    40  39  97 N13       30.06S FOG     WCI  32
TEKAMAH        CLOUDY    42  39  89 N15       30.01F
COLUMBUS       CLOUDY    39  36  87 NE17G23   30.02F WCI  30
ALBION         CLOUDY    39  37  93 N13       30.05F FOG     WCI  32
OMAHA EPPLEY   CLOUDY    42  37  82 N14       29.95F
OFFUTT AFB     CLOUDY    42  39  88 N13G21    29.95F
MILLARD        CLOUDY    43  41  94 N8        29.96F
LINCOLN        LGT RAIN  42  40  92 N14       29.97F
NEBRASKA CITY  DRIZZLE   42  42 100 NE17G23   29.91F
BEATRICE       CLOUDY    42  40  94 N14       29.92F
FALLS CITY     LGT RAIN  45  43  93 N16       29.86F

...NORTHERN KANSAS...

CITY           SKY/WX    TMP DP  RH WIND       PRES   REMARKS
GOODLAND       PTCLDY    36  34  92 NW9       30.07S WCI  29
HILL CITY      CLOUDY    43  40  89 N15       30.03S
NORTON         CLOUDY    41  36  81 N13G20    30.01F
PHILLIPSBURG   CLOUDY    43  39  87 N12G18    30.01S
HAYS             N/A     42  38  85 N16       29.99S
RUSSELL        LGT RAIN  40  39  97 N17       29.97R FOG     WCI  31
CONCORDIA      CLOUDY    42  40  92 N14       29.92F
SALINA         CLOUDY    45  41  86 N18       29.92S
TOPEKA         CLOUDY    50  49  96 N10G18    29.82R



USA.gov is the U.S. government's official web portal to all federal, state and local government web resources and services.